TimeAST,TemperatureF,Dew PointF,Humidity,Sea Level PressureIn,VisibilityMPH,Wind Direction,Wind SpeedMPH,Gust SpeedMPH,PrecipitationIn,Events,Conditions,WindDirDegrees,DateUTC
12:53 AM,77.0,72.0,84,29.92,10.0,ESE,4.6,-,N/A,,Clear,110,2012-12-01 04:53:00
1:53 AM,75.0,73.0,94,29.91,10.0,Calm,Calm,-,N/A,,Partly Cloudy,0,2012-12-01 05:53:00
2:53 AM,75.0,71.1,87,29.90,10.0,East,3.5,-,N/A,,Clear,80,2012-12-01 06:53:00
3:53 AM,75.9,72.0,87,29.88,10.0,East,6.9,-,N/A,,Partly Cloudy,100,2012-12-01 07:53:00
4:53 AM,75.9,73.0,91,29.89,10.0,East,6.9,-,N/A,,Partly Cloudy,100,2012-12-01 08:53:00
5:53 AM,75.9,72.0,87,29.91,10.0,East,6.9,-,N/A,,Partly Cloudy,100,2012-12-01 09:53:00
6:53 AM,75.9,73.0,91,29.93,10.0,East,8.1,-,N/A,,Clear,100,2012-12-01 10:53:00
7:53 AM,79.0,73.0,82,29.94,10.0,ESE,9.2,-,N/A,,Clear,110,2012-12-01 11:53:00
8:53 AM,80.1,73.0,79,29.96,10.0,East,9.2,-,N/A,,Partly Cloudy,100,2012-12-01 12:53:00
9:53 AM,81.0,73.0,77,29.96,10.0,SE,12.7,17.3,N/A,,Overcast,140,2012-12-01 13:53:00
10:53 AM,82.9,73.0,72,29.96,10.0,SSE,12.7,-,N/A,,Overcast,150,2012-12-01 14:53:00
11:53 AM,84.0,73.0,69,29.94,10.0,SE,13.8,-,N/A,,Mostly Cloudy,140,2012-12-01 15:53:00
12:53 PM,84.0,72.0,67,29.91,10.0,SE,13.8,-,N/A,,Partly Cloudy,140,2012-12-01 16:53:00
1:53 PM,82.9,72.0,69,29.89,10.0,SSE,13.8,-,N/A,,Overcast,150,2012-12-01 17:53:00
2:53 PM,82.9,72.0,69,29.88,10.0,SE,10.4,-,N/A,,Overcast,140,2012-12-01 18:53:00
3:53 PM,82.9,73.0,72,29.88,10.0,SE,11.5,-,N/A,,Partly Cloudy,130,2012-12-01 19:53:00
4:53 PM,81.0,71.1,72,29.89,10.0,SE,10.4,-,N/A,,Clear,140,2012-12-01 20:53:00
5:53 PM,81.0,71.1,72,29.89,10.0,SE,9.2,-,N/A,,Clear,130,2012-12-01 21:53:00
6:53 PM,79.0,71.1,77,29.91,10.0,East,5.8,-,N/A,,Clear,80,2012-12-01 22:53:00
7:53 PM,78.1,73.9,87,29.92,10.0,East,8.1,-,N/A,,Clear,90,2012-12-01 23:53:00
8:53 PM,78.1,72.0,81,29.92,10.0,East,8.1,-,N/A,,Overcast,80,2012-12-02 00:53:00
9:53 PM,77.0,72.0,84,29.92,10.0,East,6.9,-,N/A,,Clear,90,2012-12-02 01:53:00
10:53 PM,77.0,71.1,82,29.92,10.0,East,5.8,-,N/A,,Clear,100,2012-12-02 02:53:00
11:53 PM,77.0,71.1,82,29.91,10.0,East,4.6,-,N/A,,Clear,100,2012-12-02 03:53:00